Time,TemperatureF,DewpointF,PressureIn,WindDirection,WindDirectionDegrees,WindSpeedMPH,WindSpeedGustMPH,Humidity,HourlyPrecipIn,Conditions,Clouds,dailyrainin,SoftwareType,DateUTC
2013-08-08 00:01:00,74.8,73.3,29.79,South,173,0.0,0.0,95,0.00,,---,0.29,VWS V14.01,2013-08-08 05:01:00,
2013-08-08 00:06:00,74.6,73.1,29.79,South,171,0.0,0.0,95,0.00,,---,0.00,VWS V14.01,2013-08-08 05:06:00,
2013-08-08 00:11:00,74.4,72.9,29.79,South,172,0.0,0.0,95,0.00,,---,0.00,VWS V14.01,2013-08-08 05:11:00,
2013-08-08 00:16:00,74.4,73.2,29.79,South,172,0.0,0.0,96,0.00,,---,0.00,VWS V14.01,2013-08-08 05:16:00,
2013-08-08 00:21:00,74.4,73.2,29.79,South,171,0.0,0.0,96,0.00,,---,0.00,VWS V14.01,2013-08-08 05:21:00,
2013-08-08 00:26:00,74.3,73.1,29.79,South,172,0.0,0.0,96,0.00,,---,0.00,VWS V14.01,2013-08-08 05:26:00,
2013-08-08 00:31:00,74.1,72.6,29.78,South,171,0.0,0.0,95,0.00,,---,0.00,VWS V14.01,2013-08-08 05:31:00,
2013-08-08 00:36:00,74.0,72.5,29.78,South,173,0.0,0.0,95,0.00,,---,0.00,VWS V14.01,2013-08-08 05:36:00,
2013-08-08 00:41:00,73.8,72.6,29.78,South,171,0.0,0.0,96,0.00,,---,0.00,VWS V14.01,2013-08-08 05:41:00,
2013-08-08 00:46:00,73.7,72.5,29.78,South,171,0.0,0.0,96,0.00,,---,0.00,VWS V14.01,2013-08-08 05:46:00,
2013-08-08 00:51:00,73.5,72.0,29.78,South,171,0.0,0.0,95,0.00,,---,0.00,VWS V14.01,2013-08-08 05:51:00,
2013-08-08 00:56:00,73.4,72.2,29.78,South,171,0.0,0.0,96,0.00,,---,0.00,VWS V14.01,2013-08-08 05:56:00,
2013-08-08 01:01:00,73.3,72.1,29.79,South,172,0.0,0.0,96,0.00,,---,0.00,VWS V14.01,2013-08-08 06:01:00,
2013-08-08 01:06:00,73.3,72.1,29.79,South,173,0.0,0.0,96,0.00,,---,0.00,VWS V14.01,2013-08-08 06:06:00,
2013-08-08 01:11:00,73.2,72.0,29.79,South,172,0.0,0.0,96,0.00,,---,0.00,VWS V14.01,2013-08-08 06:11:00,
2013-08-08 01:16:00,73.2,72.0,29.78,South,171,0.0,0.0,96,0.00,,---,0.00,VWS V14.01,2013-08-08 06:16:00,
2013-08-08 01:21:00,73.3,72.1,29.78,South,172,0.0,0.0,96,0.00,,---,0.00,VWS V14.01,2013-08-08 06:21:00,
2013-08-08 01:26:00,73.4,72.2,29.78,South,172,0.0,0.0,96,0.00,,---,0.00,VWS V14.01,2013-08-08 06:26:00,
2013-08-08 01:31:00,73.4,72.2,29.78,South,171,0.0,0.0,96,0.00,,---,0.00,VWS V14.01,2013-08-08 06:31:00,
2013-08-08 01:36:00,73.4,72.2,29.78,South,171,0.0,0.0,96,0.00,,---,0.00,VWS V14.01,2013-08-08 06:36:00,
2013-08-08 01:41:00,73.3,72.1,29.78,South,172,0.0,0.0,96,0.00,,---,0.00,VWS V14.01,2013-08-08 06:41:00,
2013-08-08 01:46:00,73.2,72.0,29.78,South,171,0.0,0.0,96,0.00,,---,0.00,VWS V14.01,2013-08-08 06:46:00,
2013-08-08 01:51:00,73.1,71.9,29.78,South,173,0.0,0.0,96,0.00,,---,0.00,VWS V14.01,2013-08-08 06:51:00,
2013-08-08 01:56:00,73.0,71.8,29.78,South,172,0.0,0.0,96,0.00,,---,0.00,VWS V14.01,2013-08-08 06:56:00,
2013-08-08 02:01:00,72.9,71.7,29.78,South,172,0.0,0.0,96,0.00,,---,0.00,VWS V14.01,2013-08-08 07:01:00,
2013-08-08 02:06:00,72.9,71.7,29.78,South,172,0.0,0.0,96,0.00,,---,0.00,VWS V14.01,2013-08-08 07:06:00,
2013-08-08 02:11:00,72.9,71.7,29.78,South,171,0.0,0.0,96,0.00,,---,0.00,VWS V14.01,2013-08-08 07:11:00,
2013-08-08 02:16:00,72.8,71.6,29.78,South,172,0.0,0.0,96,0.00,,---,0.00,VWS V14.01,2013-08-08 07:16:00,
2013-08-08 02:21:00,72.8,71.6,29.78,South,172,0.0,0.0,96,0.00,,---,0.00,VWS V14.01,2013-08-08 07:21:00,
2013-08-08 02:26:00,72.8,71.6,29.78,South,171,0.0,0.0,96,0.00,,---,0.00,VWS V14.01,2013-08-08 07:26:00,
2013-08-08 02:31:00,72.9,71.7,29.77,South,172,0.0,0.0,96,0.00,,---,0.00,VWS V14.01,2013-08-08 07:31:00,
2013-08-08 02:36:00,72.9,71.7,29.77,South,173,0.0,0.0,96,0.00,,---,0.00,VWS V14.01,2013-08-08 07:36:00,
2013-08-08 02:41:00,73.0,71.8,29.77,South,171,0.0,0.0,96,0.00,,---,0.00,VWS V14.01,2013-08-08 07:41:00,
2013-08-08 02:46:00,73.0,71.8,29.77,South,173,0.0,0.0,96,0.00,,---,0.00,VWS V14.01,2013-08-08 07:46:00,
2013-08-08 02:51:00,72.9,71.7,29.77,South,172,0.0,0.0,96,0.00,,---,0.00,VWS V14.01,2013-08-08 07:51:00,
2013-08-08 02:56:00,72.9,71.7,29.77,South,171,0.0,0.0,96,0.00,,---,0.00,VWS V14.01,2013-08-08 07:56:00,
2013-08-08 03:01:00,72.8,71.6,29.77,South,171,0.0,0.0,96,0.00,,---,0.00,VWS V14.01,2013-08-08 08:01:00,
2013-08-08 03:06:00,72.7,71.5,29.77,South,173,0.0,0.0,96,0.00,,---,0.00,VWS V14.01,2013-08-08 08:06:00,
2013-08-08 03:11:00,72.6,71.4,29.77,South,172,0.0,0.0,96,0.00,,---,0.00,VWS V14.01,2013-08-08 08:11:00,
2013-08-08 03:16:00,72.5,71.3,29.75,South,173,0.0,0.0,96,0.00,,---,0.00,VWS V14.01,2013-08-08 08:16:00,
2013-08-08 03:21:00,72.4,71.2,29.75,South,171,0.0,0.0,96,0.00,,---,0.00,VWS V14.01,2013-08-08 08:21:00,
2013-08-08 03:26:00,72.3,71.1,29.75,South,173,0.0,0.0,96,0.00,,---,0.00,VWS V14.01,2013-08-08 08:26:00,
2013-08-08 03:31:00,72.2,71.0,29.75,South,171,0.0,0.0,96,0.00,,---,0.00,VWS V14.01,2013-08-08 08:31:00,
2013-08-08 03:36:00,72.1,70.9,29.75,South,171,0.0,0.0,96,0.00,,---,0.00,VWS V14.01,2013-08-08 08:36:00,
2013-08-08 03:41:00,72.0,70.8,29.75,South,171,0.0,0.0,96,0.00,,---,0.00,VWS V14.01,2013-08-08 08:41:00,
2013-08-08 03:46:00,72.0,70.8,29.75,South,172,0.0,0.0,96,0.00,,---,0.00,VWS V14.01,2013-08-08 08:46:00,
2013-08-08 03:51:00,72.0,70.8,29.75,South,171,0.0,0.0,96,0.00,,---,0.00,VWS V14.01,2013-08-08 08:51:00,
2013-08-08 03:56:00,71.9,70.7,29.75,South,171,0.0,0.0,96,0.00,,---,0.00,VWS V14.01,2013-08-08 08:56:00,
2013-08-08 04:01:00,71.9,70.7,29.75,South,171,0.0,0.0,96,0.00,,---,0.00,VWS V14.01,2013-08-08 09:01:00,
2013-08-08 04:06:00,71.9,70.7,29.75,South,173,0.0,0.0,96,0.00,,---,0.00,VWS V14.01,2013-08-08 09:06:00,
2013-08-08 04:11:00,71.7,70.5,29.75,South,172,0.0,0.0,96,0.00,,---,0.00,VWS V14.01,2013-08-08 09:11:00,
2013-08-08 04:16:00,71.6,70.4,29.75,South,171,0.0,0.0,96,0.00,,---,0.00,VWS V14.01,2013-08-08 09:16:00,
2013-08-08 04:21:00,71.5,70.3,29.75,South,171,0.0,0.0,96,0.00,,---,0.00,VWS V14.01,2013-08-08 09:21:00,
2013-08-08 04:26:00,71.5,70.3,29.75,South,171,0.0,0.0,96,0.00,,---,0.00,VWS V14.01,2013-08-08 09:26:00,
2013-08-08 04:31:00,71.4,70.2,29.76,South,171,0.0,0.0,96,0.00,,---,0.00,VWS V14.01,2013-08-08 09:31:00,
2013-08-08 04:36:00,71.4,70.2,29.76,South,171,0.0,0.0,96,0.00,,---,0.00,VWS V14.01,2013-08-08 09:36:00,
2013-08-08 04:41:00,71.4,70.2,29.76,South,172,0.0,0.0,96,0.00,,---,0.00,VWS V14.01,2013-08-08 09:41:00,
2013-08-08 04:46:00,71.3,70.1,29.76,South,173,0.0,0.0,96,0.00,,---,0.00,VWS V14.01,2013-08-08 09:46:00,
2013-08-08 04:51:00,71.3,70.1,29.76,South,171,0.0,0.0,96,0.00,,---,0.00,VWS V14.01,2013-08-08 09:51:00,
2013-08-08 04:56:00,71.2,70.0,29.76,South,171,0.0,0.0,96,0.00,,---,0.00,VWS V14.01,2013-08-08 09:56:00,
2013-08-08 05:01:00,71.1,69.9,29.76,South,171,0.0,0.0,96,0.00,,---,0.00,VWS V14.01,2013-08-08 10:01:00,
2013-08-08 05:06:00,71.1,69.9,29.76,South,172,0.0,0.0,96,0.00,,---,0.00,VWS V14.01,2013-08-08 10:06:00,
2013-08-08 05:11:00,71.1,69.9,29.76,South,172,0.0,0.0,96,0.00,,---,0.00,VWS V14.01,2013-08-08 10:11:00,
2013-08-08 05:16:00,71.1,69.9,29.77,South,173,0.0,0.0,96,0.00,,---,0.00,VWS V14.01,2013-08-08 10:16:00,
2013-08-08 05:21:00,71.1,70.2,29.77,South,171,0.0,0.0,97,0.00,,---,0.00,VWS V14.01,2013-08-08 10:21:00,
2013-08-08 05:26:00,71.0,70.1,29.77,South,173,0.0,0.0,97,0.00,,---,0.00,VWS V14.01,2013-08-08 10:26:00,
2013-08-08 05:31:00,70.9,69.7,29.76,South,171,0.0,0.0,96,0.00,,---,0.00,VWS V14.01,2013-08-08 10:31:00,
2013-08-08 05:36:00,70.8,69.6,29.76,South,173,0.0,0.0,96,0.00,,---,0.00,VWS V14.01,2013-08-08 10:36:00,
2013-08-08 05:41:00,70.7,69.5,29.76,South,173,0.0,0.0,96,0.00,,---,0.00,VWS V14.01,2013-08-08 10:41:00,
2013-08-08 05:46:00,70.6,69.4,29.76,South,173,0.0,0.0,96,0.00,,---,0.00,VWS V14.01,2013-08-08 10:46:00,
2013-08-08 05:51:00,70.6,69.4,29.76,South,171,0.0,0.0,96,0.00,,---,0.00,VWS V14.01,2013-08-08 10:51:00,
2013-08-08 05:56:00,70.6,69.7,29.76,South,173,0.0,0.0,97,0.00,,---,0.00,VWS V14.01,2013-08-08 10:56:00,
2013-08-08 06:01:00,70.7,69.5,29.76,South,172,0.0,0.0,96,0.00,,---,0.00,VWS V14.01,2013-08-08 11:01:00,
2013-08-08 06:06:00,70.9,69.7,29.76,South,171,0.0,0.0,96,0.00,,---,0.00,VWS V14.01,2013-08-08 11:06:00,
2013-08-08 06:11:00,71.3,70.4,29.76,South,173,0.0,0.0,97,0.00,,---,0.00,VWS V14.01,2013-08-08 11:11:00,
2013-08-08 06:16:00,71.4,70.5,29.76,South,171,0.0,0.0,97,0.00,,---,0.00,VWS V14.01,2013-08-08 11:16:00,
2013-08-08 06:21:00,71.6,70.7,29.76,South,173,0.0,0.0,97,0.00,,---,0.00,VWS V14.01,2013-08-08 11:21:00,
2013-08-08 06:26:00,71.7,70.8,29.76,South,172,0.0,0.0,97,0.00,,---,0.00,VWS V14.01,2013-08-08 11:26:00,
2013-08-08 06:31:00,71.9,71.0,29.76,South,171,0.0,0.0,97,0.00,,---,0.00,VWS V14.01,2013-08-08 11:31:00,
2013-08-08 06:36:00,72.1,71.2,29.76,South,173,0.0,0.0,97,0.00,,---,0.00,VWS V14.01,2013-08-08 11:36:00,
2013-08-08 06:41:00,72.3,71.4,29.76,South,171,0.0,0.0,97,0.00,,---,0.00,VWS V14.01,2013-08-08 11:41:00,
2013-08-08 06:46:00,72.5,71.6,29.76,South,171,0.0,0.0,97,0.00,,---,0.00,VWS V14.01,2013-08-08 11:46:00,
2013-08-08 06:51:00,72.5,71.6,29.76,South,172,0.0,0.0,97,0.00,,---,0.00,VWS V14.01,2013-08-08 11:51:00,
2013-08-08 06:56:00,72.5,71.6,29.76,South,171,0.0,0.0,97,0.00,,---,0.00,VWS V14.01,2013-08-08 11:56:00,
2013-08-08 07:01:00,72.6,71.7,29.77,South,172,0.0,0.0,97,0.00,,---,0.00,VWS V14.01,2013-08-08 12:01:00,
2013-08-08 07:06:00,72.8,71.9,29.77,South,172,0.0,0.0,97,0.00,,---,0.00,VWS V14.01,2013-08-08 12:06:00,
2013-08-08 07:11:00,73.4,72.5,29.77,South,172,0.0,0.0,97,0.00,,---,0.00,VWS V14.01,2013-08-08 12:11:00,
2013-08-08 07:16:00,73.7,72.8,29.78,South,172,0.0,0.0,97,0.00,,---,0.00,VWS V14.01,2013-08-08 12:16:00,
2013-08-08 07:21:00,73.8,72.9,29.78,South,173,0.0,0.0,97,0.00,,---,0.00,VWS V14.01,2013-08-08 12:21:00,
2013-08-08 07:26:00,74.0,73.1,29.78,South,171,0.0,0.0,97,0.00,,---,0.00,VWS V14.01,2013-08-08 12:26:00,
2013-08-08 07:31:00,74.2,73.3,29.78,South,171,0.0,0.0,97,0.00,,---,0.00,VWS V14.01,2013-08-08 12:31:00,
2013-08-08 07:36:00,74.3,73.4,29.78,South,169,0.0,0.0,97,0.00,,---,0.00,VWS V14.01,2013-08-08 12:36:00,
2013-08-08 07:41:00,74.7,73.8,29.78,South,169,0.0,0.0,97,0.00,,---,0.00,VWS V14.01,2013-08-08 12:41:00,
2013-08-08 07:46:00,74.9,74.0,29.78,South,169,0.0,0.0,97,0.00,,---,0.00,VWS V14.01,2013-08-08 12:46:00,
2013-08-08 07:51:00,74.9,74.0,29.78,South,169,0.0,0.0,97,0.00,,---,0.00,VWS V14.01,2013-08-08 12:51:00,
2013-08-08 07:56:00,75.1,74.2,29.78,South,169,0.0,0.0,97,0.00,,---,0.00,VWS V14.01,2013-08-08 12:56:00,
2013-08-08 08:01:00,75.0,74.1,29.79,South,170,0.0,0.0,97,0.00,,---,0.00,VWS V14.01,2013-08-08 13:01:00,
2013-08-08 08:06:00,75.1,74.2,29.79,South,169,0.0,0.0,97,0.00,,---,0.00,VWS V14.01,2013-08-08 13:06:00,
2013-08-08 08:11:00,75.3,74.4,29.79,South,169,0.0,0.0,97,0.00,,---,0.00,VWS V14.01,2013-08-08 13:11:00,
2013-08-08 08:16:00,75.7,74.8,29.80,South,169,0.0,0.0,97,0.00,,---,0.00,VWS V14.01,2013-08-08 13:16:00,
2013-08-08 08:21:00,75.8,74.9,29.80,SSE,168,0.0,0.0,97,0.00,,---,0.00,VWS V14.01,2013-08-08 13:21:00,
2013-08-08 08:26:00,76.0,75.1,29.80,South,169,0.0,0.0,97,0.00,,---,0.00,VWS V14.01,2013-08-08 13:26:00,
2013-08-08 08:31:00,76.2,75.0,29.80,South,169,0.0,0.0,96,0.00,,---,0.00,VWS V14.01,2013-08-08 13:31:00,
2013-08-08 08:36:00,76.5,75.6,29.80,South,169,0.0,0.0,97,0.00,,---,0.00,VWS V14.01,2013-08-08 13:36:00,
2013-08-08 08:41:00,76.7,75.5,29.80,South,169,0.0,0.0,96,0.00,,---,0.00,VWS V14.01,2013-08-08 13:41:00,
2013-08-08 08:46:00,76.9,75.7,29.80,South,169,0.0,0.0,96,0.00,,---,0.00,VWS V14.01,2013-08-08 13:46:00,
2013-08-08 08:51:00,77.4,76.2,29.80,South,170,0.0,0.0,96,0.00,,---,0.00,VWS V14.01,2013-08-08 13:51:00,
2013-08-08 08:56:00,77.9,76.4,29.80,South,170,0.0,0.0,95,0.00,,---,0.00,VWS V14.01,2013-08-08 13:56:00,
2013-08-08 09:01:00,78.5,76.9,29.80,South,170,0.0,0.0,95,0.00,,---,0.00,VWS V14.01,2013-08-08 14:01:00,
2013-08-08 09:06:00,79.2,77.3,29.80,South,169,0.0,0.0,94,0.00,,---,0.00,VWS V14.01,2013-08-08 14:06:00,
2013-08-08 09:11:00,79.9,77.7,29.80,ESE,103,0.0,0.0,93,0.00,,---,0.00,VWS V14.01,2013-08-08 14:11:00,
2013-08-08 09:16:00,80.5,77.6,29.80,ESE,102,0.0,0.0,91,0.00,,---,0.00,VWS V14.01,2013-08-08 14:16:00,
2013-08-08 09:21:00,80.7,77.5,29.80,ESE,103,0.0,0.0,90,0.00,,---,0.00,VWS V14.01,2013-08-08 14:21:00,
2013-08-08 09:26:00,80.9,77.4,29.80,SSE,153,0.0,0.0,89,0.00,,---,0.00,VWS V14.01,2013-08-08 14:26:00,
2013-08-08 09:31:00,81.4,77.5,29.81,SSE,153,0.0,0.0,88,0.00,,---,0.00,VWS V14.01,2013-08-08 14:31:00,
2013-08-08 09:36:00,82.0,77.4,29.81,SSE,153,0.0,0.0,86,0.00,,---,0.00,VWS V14.01,2013-08-08 14:36:00,
2013-08-08 09:41:00,82.4,77.1,29.81,SSE,153,0.0,0.0,84,0.00,,---,0.00,VWS V14.01,2013-08-08 14:41:00,
2013-08-08 09:46:00,82.4,77.1,29.81,East,88,0.0,0.0,84,0.00,,---,0.00,VWS V14.01,2013-08-08 14:46:00,
2013-08-08 09:51:00,82.6,77.3,29.81,East,95,0.0,0.0,84,0.00,,---,0.00,VWS V14.01,2013-08-08 14:51:00,
2013-08-08 09:56:00,82.5,77.2,29.81,East,93,0.0,0.0,84,0.00,,---,0.00,VWS V14.01,2013-08-08 14:56:00,
2013-08-08 10:01:00,82.9,77.2,29.80,SSE,159,0.0,0.0,83,0.00,,---,0.00,VWS V14.01,2013-08-08 15:01:00,
2013-08-08 10:06:00,83.1,77.0,29.80,ENE,65,0.0,0.0,82,0.00,,---,0.00,VWS V14.01,2013-08-08 15:06:00,
2013-08-08 10:11:00,83.3,77.2,29.80,East,88,0.0,0.0,82,0.00,,---,0.00,VWS V14.01,2013-08-08 15:11:00,
2013-08-08 10:16:00,82.8,76.0,29.81,East,84,0.0,0.0,80,0.00,,---,0.00,VWS V14.01,2013-08-08 15:16:00,
2013-08-08 10:21:00,82.5,75.3,29.81,ENE,69,0.0,0.0,79,0.00,,---,0.00,VWS V14.01,2013-08-08 15:21:00,
2013-08-08 10:26:00,82.7,75.9,29.81,East,79,0.0,0.0,80,0.00,,---,0.00,VWS V14.01,2013-08-08 15:26:00,
2013-08-08 10:31:00,83.3,76.9,29.82,SE,137,0.0,0.0,81,0.00,,---,0.00,VWS V14.01,2013-08-08 15:31:00,
2013-08-08 10:36:00,83.6,76.8,29.82,South,183,0.0,0.0,80,0.00,,---,0.00,VWS V14.01,2013-08-08 15:36:00,
2013-08-08 10:41:00,83.7,76.9,29.82,South,175,0.0,0.0,80,0.00,,---,0.00,VWS V14.01,2013-08-08 15:41:00,
2013-08-08 10:46:00,83.8,77.0,29.81,South,178,0.0,0.0,80,0.00,,---,0.00,VWS V14.01,2013-08-08 15:46:00,
2013-08-08 10:51:00,83.6,76.8,29.81,SSE,153,0.0,0.0,80,0.00,,---,0.00,VWS V14.01,2013-08-08 15:51:00,
2013-08-08 10:56:00,83.8,77.7,29.81,SSE,153,0.0,0.0,82,0.00,,---,0.00,VWS V14.01,2013-08-08 15:56:00,
2013-08-08 11:01:00,84.0,77.5,29.81,SSE,155,0.0,0.0,81,0.00,,---,0.00,VWS V14.01,2013-08-08 16:01:00,
2013-08-08 11:06:00,84.1,77.6,29.81,SSE,154,0.0,0.0,81,0.00,,---,0.00,VWS V14.01,2013-08-08 16:06:00,
2013-08-08 11:11:00,83.8,77.7,29.81,SSE,164,0.0,0.0,82,0.00,,---,0.00,VWS V14.01,2013-08-08 16:11:00,
2013-08-08 11:16:00,83.6,77.5,29.81,SSE,157,0.0,0.0,82,0.00,,---,0.00,VWS V14.01,2013-08-08 16:16:00,
2013-08-08 11:21:00,83.4,77.7,29.81,South,188,0.0,0.0,83,0.00,,---,0.00,VWS V14.01,2013-08-08 16:21:00,
2013-08-08 11:26:00,83.2,77.5,29.81,SSE,158,0.0,0.0,83,0.00,,---,0.00,VWS V14.01,2013-08-08 16:26:00,
2013-08-08 11:31:00,83.3,77.6,29.81,SSE,163,0.0,0.0,83,0.00,,---,0.00,VWS V14.01,2013-08-08 16:31:00,
2013-08-08 11:36:00,83.3,77.2,29.81,SSE,163,0.0,0.0,82,0.00,,---,0.00,VWS V14.01,2013-08-08 16:36:00,
2013-08-08 11:41:00,83.7,77.6,29.81,SSE,163,0.0,0.0,82,0.00,,---,0.00,VWS V14.01,2013-08-08 16:41:00,
2013-08-08 11:46:00,84.2,77.7,29.81,SSE,163,0.0,0.0,81,0.00,,---,0.00,VWS V14.01,2013-08-08 16:46:00,
2013-08-08 11:51:00,84.6,77.4,29.81,SSE,163,0.0,0.0,79,0.00,,---,0.00,VWS V14.01,2013-08-08 16:51:00,
2013-08-08 11:56:00,85.1,77.9,29.81,SSE,163,0.0,0.0,79,0.00,,---,0.00,VWS V14.01,2013-08-08 16:56:00,
2013-08-08 12:01:00,85.6,77.6,29.81,SSE,163,0.0,0.0,77,0.00,,---,0.00,VWS V14.01,2013-08-08 17:01:00,
2013-08-08 12:06:00,85.6,77.2,29.81,South,169,0.0,0.0,76,0.00,,---,0.00,VWS V14.01,2013-08-08 17:06:00,
2013-08-08 12:11:00,85.8,77.8,29.81,South,170,0.0,0.0,77,0.00,,---,0.00,VWS V14.01,2013-08-08 17:11:00,
2013-08-08 12:16:00,86.3,78.2,29.81,ENE,73,0.0,0.0,77,0.00,,---,0.00,VWS V14.01,2013-08-08 17:16:00,
2013-08-08 12:21:00,85.7,77.3,29.81,WNW,291,0.0,0.0,76,0.00,,---,0.00,VWS V14.01,2013-08-08 17:21:00,
2013-08-08 12:26:00,85.4,77.0,29.81,WNW,300,0.0,0.0,76,0.00,,---,0.00,VWS V14.01,2013-08-08 17:26:00,
2013-08-08 12:31:00,85.7,77.7,29.81,WNW,299,0.0,0.0,77,0.00,,---,0.00,VWS V14.01,2013-08-08 17:31:00,
2013-08-08 12:36:00,86.2,78.5,29.81,North,11,0.0,0.0,78,0.00,,---,0.00,VWS V14.01,2013-08-08 17:36:00,
2013-08-08 12:41:00,85.8,77.8,29.81,ENE,58,0.0,0.0,77,0.00,,---,0.00,VWS V14.01,2013-08-08 17:41:00,
2013-08-08 12:46:00,85.0,77.8,29.81,ENE,70,0.0,0.0,79,0.00,,---,0.00,VWS V14.01,2013-08-08 17:46:00,
2013-08-08 12:51:00,84.6,77.4,29.81,NE,41,0.0,0.0,79,0.00,,---,0.00,VWS V14.01,2013-08-08 17:51:00,
2013-08-08 12:56:00,84.1,76.9,29.81,NNW,345,0.0,0.0,79,0.00,,---,0.00,VWS V14.01,2013-08-08 17:56:00,
2013-08-08 13:01:00,84.2,77.0,29.81,NW,313,0.0,0.0,79,0.00,,---,0.00,VWS V14.01,2013-08-08 18:01:00,
2013-08-08 13:06:00,84.0,76.8,29.81,NW,312,13.0,18.0,79,0.00,,---,0.00,VWS V14.01,2013-08-08 18:06:00,
2013-08-08 13:11:00,81.9,74.4,29.81,NNW,334,0.0,19.0,78,0.01,,---,0.01,VWS V14.01,2013-08-08 18:11:00,
2013-08-08 13:16:00,79.3,73.3,29.83,WNW,290,0.0,19.0,82,0.19,,---,0.19,VWS V14.01,2013-08-08 18:16:00,
2013-08-08 13:21:00,77.9,73.4,29.83,WNW,290,0.0,19.0,86,0.25,,---,0.25,VWS V14.01,2013-08-08 18:21:00,
2013-08-08 13:28:00,76.9,73.4,29.83,WNW,290,0.0,0.0,89,0.28,,---,0.28,VWS V14.01,2013-08-08 18:28:00,
2013-08-08 13:33:00,76.5,73.7,29.80,WNW,289,0.0,0.0,91,0.30,,---,0.30,VWS V14.01,2013-08-08 18:33:00,
2013-08-08 13:38:00,76.2,73.4,29.80,WNW,290,0.0,3.0,91,0.31,,---,0.31,VWS V14.01,2013-08-08 18:38:00,
2013-08-08 13:43:00,76.0,73.5,29.80,WNW,290,0.0,3.0,92,0.32,,---,0.32,VWS V14.01,2013-08-08 18:43:00,
2013-08-08 13:48:00,75.8,73.6,29.79,WNW,290,0.0,3.0,93,0.32,,---,0.32,VWS V14.01,2013-08-08 18:48:00,
2013-08-08 13:53:00,75.8,73.6,29.79,WNW,289,0.0,3.0,93,0.33,,---,0.33,VWS V14.01,2013-08-08 18:53:00,
2013-08-08 13:58:00,75.4,73.2,29.79,East,86,0.0,4.0,93,0.33,,---,0.33,VWS V14.01,2013-08-08 18:58:00,
2013-08-08 14:03:00,75.1,73.3,29.78,East,80,0.0,0.0,94,0.33,,---,0.33,VWS V14.01,2013-08-08 19:03:00,
2013-08-08 14:08:00,75.0,73.2,29.78,East,80,0.0,0.0,94,0.33,,---,0.33,VWS V14.01,2013-08-08 19:08:00,
2013-08-08 14:13:00,74.9,73.1,29.78,East,80,0.0,0.0,94,0.33,,---,0.33,VWS V14.01,2013-08-08 19:13:00,
2013-08-08 14:18:00,74.9,73.1,29.77,SSE,148,0.0,1.0,94,0.33,,---,0.33,VWS V14.01,2013-08-08 19:18:00,
2013-08-08 14:23:00,74.8,73.0,29.77,SSE,148,0.0,1.0,94,0.33,,---,0.33,VWS V14.01,2013-08-08 19:23:00,
2013-08-08 14:28:00,74.8,73.0,29.77,SSE,167,0.0,2.0,94,0.33,,---,0.33,VWS V14.01,2013-08-08 19:28:00,
2013-08-08 14:33:00,74.9,73.1,29.77,SSE,168,0.0,1.0,94,0.04,,---,0.33,VWS V14.01,2013-08-08 19:33:00,
2013-08-08 14:38:00,75.1,73.6,29.77,SSE,167,0.0,1.0,95,0.04,,---,0.33,VWS V14.01,2013-08-08 19:38:00,
2013-08-08 14:43:00,75.1,73.6,29.77,SSE,167,0.0,2.0,95,0.04,,---,0.33,VWS V14.01,2013-08-08 19:43:00,
2013-08-08 14:48:00,75.4,73.9,29.77,SSE,167,0.0,2.0,95,0.04,,---,0.33,VWS V14.01,2013-08-08 19:48:00,
2013-08-08 14:53:00,75.6,74.1,29.77,SSE,168,0.0,2.0,95,0.04,,---,0.33,VWS V14.01,2013-08-08 19:53:00,
2013-08-08 14:58:00,75.7,74.2,29.77,South,175,0.0,3.0,95,0.04,,---,0.33,VWS V14.01,2013-08-08 19:58:00,
2013-08-08 15:03:00,75.7,74.2,29.77,South,175,0.0,0.0,95,0.00,,---,0.33,VWS V14.01,2013-08-08 20:03:00,
2013-08-08 15:08:00,75.9,74.4,29.77,SE,134,0.0,2.0,95,0.00,,---,0.33,VWS V14.01,2013-08-08 20:08:00,
2013-08-08 15:13:00,76.2,74.7,29.77,South,179,0.0,4.0,95,0.00,,---,0.33,VWS V14.01,2013-08-08 20:13:00,
2013-08-08 15:18:00,76.6,75.1,29.77,SSE,159,6.0,6.0,95,0.00,,---,0.33,VWS V14.01,2013-08-08 20:18:00,
2013-08-08 15:23:00,76.7,75.2,29.77,SSE,163,0.0,6.0,95,0.00,,---,0.33,VWS V14.01,2013-08-08 20:23:00,
2013-08-08 15:28:00,76.9,75.4,29.77,SE,143,0.0,6.0,95,0.00,,---,0.33,VWS V14.01,2013-08-08 20:28:00,
2013-08-08 15:33:00,76.7,74.8,29.76,South,175,1.0,3.0,94,0.00,,---,0.33,VWS V14.01,2013-08-08 20:33:00,
2013-08-08 15:38:00,76.6,74.4,29.76,South,169,0.0,5.0,93,0.00,,---,0.33,VWS V14.01,2013-08-08 20:38:00,
2013-08-08 15:43:00,76.6,74.4,29.76,SSE,167,2.0,6.0,93,0.00,,---,0.33,VWS V14.01,2013-08-08 20:43:00,
2013-08-08 15:48:00,76.9,74.4,29.76,SSE,163,1.0,6.0,92,0.00,,---,0.33,VWS V14.01,2013-08-08 20:48:00,
2013-08-08 15:53:00,77.6,75.4,29.76,South,173,0.0,6.0,93,0.00,,---,0.33,VWS V14.01,2013-08-08 20:53:00,
2013-08-08 15:58:00,78.0,75.2,29.76,South,169,0.0,6.0,91,0.00,,---,0.33,VWS V14.01,2013-08-08 20:58:00,
2013-08-08 16:03:00,78.4,75.6,29.76,South,169,0.0,0.0,91,0.00,,---,0.33,VWS V14.01,2013-08-08 21:03:00,
2013-08-08 16:08:00,78.7,75.5,29.76,South,169,0.0,0.0,90,0.00,,---,0.33,VWS V14.01,2013-08-08 21:08:00,
2013-08-08 16:13:00,79.2,75.7,29.76,South,169,0.0,0.0,89,0.00,,---,0.33,VWS V14.01,2013-08-08 21:13:00,
2013-08-08 16:19:00,79.7,75.8,29.77,ENE,73,0.0,1.0,88,0.00,,---,0.33,VWS V14.01,2013-08-08 21:19:00,
2013-08-08 16:24:00,79.9,75.7,29.77,ENE,61,0.0,2.0,87,0.00,,---,0.33,VWS V14.01,2013-08-08 21:24:00,
2013-08-08 16:29:00,79.9,75.7,29.77,ENE,62,0.0,2.0,87,0.00,,---,0.33,VWS V14.01,2013-08-08 21:29:00,
2013-08-08 16:34:00,80.2,76.0,29.77,ENE,61,0.0,0.0,87,0.00,,---,0.33,VWS V14.01,2013-08-08 21:34:00,
2013-08-08 16:39:00,80.6,76.4,29.77,ENE,61,0.0,0.0,87,0.00,,---,0.33,VWS V14.01,2013-08-08 21:39:00,
2013-08-08 16:44:00,80.6,75.7,29.77,ENE,62,0.0,0.0,85,0.00,,---,0.33,VWS V14.01,2013-08-08 21:44:00,
2013-08-08 16:49:00,80.6,75.7,29.77,South,169,0.0,3.0,85,0.00,,---,0.33,VWS V14.01,2013-08-08 21:49:00,
2013-08-08 16:54:00,80.0,74.0,29.77,SSE,166,1.0,7.0,82,0.00,,---,0.33,VWS V14.01,2013-08-08 21:54:00,
2013-08-08 17:00:00,80.0,74.4,29.77,South,175,0.0,7.0,83,0.00,,---,0.33,VWS V14.01,2013-08-08 22:00:00,
2013-08-08 17:05:00,79.9,73.9,29.77,SSW,199,0.0,2.0,82,0.00,,---,0.33,VWS V14.01,2013-08-08 22:05:00,
2013-08-08 17:10:00,80.2,74.9,29.77,SSW,198,0.0,2.0,84,0.00,,---,0.33,VWS V14.01,2013-08-08 22:10:00,
2013-08-08 17:15:00,80.5,74.5,29.77,SSW,198,0.0,2.0,82,0.00,,---,0.33,VWS V14.01,2013-08-08 22:15:00,
2013-08-08 17:20:00,81.3,75.3,29.77,SSW,199,0.0,2.0,82,0.00,,---,0.33,VWS V14.01,2013-08-08 22:20:00,
2013-08-08 17:25:00,82.0,75.2,29.77,SSW,198,0.0,2.0,80,0.00,,---,0.33,VWS V14.01,2013-08-08 22:25:00,
2013-08-08 17:30:00,82.2,75.0,29.77,SSW,198,0.0,2.0,79,0.00,,---,0.33,VWS V14.01,2013-08-08 22:30:00,
2013-08-08 17:35:00,83.0,75.4,29.77,SSW,198,1.0,1.0,78,0.00,,---,0.33,VWS V14.01,2013-08-08 22:35:00,
2013-08-08 17:40:00,83.7,74.9,29.77,SSW,200,0.0,1.0,75,0.00,,---,0.33,VWS V14.01,2013-08-08 22:40:00,
2013-08-08 17:45:00,84.0,74.8,29.77,SSW,202,0.0,1.0,74,0.00,,---,0.33,VWS V14.01,2013-08-08 22:45:00,
2013-08-08 17:50:00,84.0,74.8,29.77,SSW,202,0.0,1.0,74,0.00,,---,0.33,VWS V14.01,2013-08-08 22:50:00,
2013-08-08 17:55:00,84.5,75.7,29.77,SSW,202,0.0,1.0,75,0.00,,---,0.33,VWS V14.01,2013-08-08 22:55:00,
2013-08-08 18:00:00,85.1,75.9,29.77,SSW,202,0.0,1.0,74,0.00,,---,0.33,VWS V14.01,2013-08-08 23:00:00,
2013-08-08 18:05:00,85.1,75.1,29.77,SSW,202,0.0,0.0,72,0.00,,---,0.33,VWS V14.01,2013-08-08 23:05:00,
2013-08-08 18:10:00,84.9,75.3,29.77,SSW,202,0.0,0.0,73,0.00,,---,0.33,VWS V14.01,2013-08-08 23:10:00,
2013-08-08 18:16:00,84.4,75.6,29.77,SSW,204,0.0,1.0,75,0.00,,---,0.33,VWS V14.01,2013-08-08 23:16:00,
2013-08-08 18:21:00,83.7,75.3,29.77,SSW,204,0.0,1.0,76,0.00,,---,0.33,VWS V14.01,2013-08-08 23:21:00,
2013-08-08 18:26:00,83.5,75.9,29.77,SSW,204,0.0,1.0,78,0.00,,---,0.33,VWS V14.01,2013-08-08 23:26:00,
2013-08-08 18:31:00,83.9,75.9,29.77,SSW,203,0.0,1.0,77,0.00,,---,0.33,VWS V14.01,2013-08-08 23:31:00,
2013-08-08 18:36:00,83.9,75.5,29.77,West,276,0.0,2.0,76,0.00,,---,0.33,VWS V14.01,2013-08-08 23:36:00,
2013-08-08 18:41:00,83.3,75.7,29.77,West,276,0.0,2.0,78,0.00,,---,0.33,VWS V14.01,2013-08-08 23:41:00,
2013-08-08 18:46:00,83.0,75.8,29.77,West,277,0.0,2.0,79,0.00,,---,0.33,VWS V14.01,2013-08-08 23:46:00,
2013-08-08 18:51:00,82.7,75.9,29.77,West,276,0.0,2.0,80,0.00,,---,0.33,VWS V14.01,2013-08-08 23:51:00,
2013-08-08 18:56:00,82.5,75.3,29.77,West,276,0.0,2.0,79,0.00,,---,0.33,VWS V14.01,2013-08-08 23:56:00,
2013-08-08 19:01:00,82.3,75.1,29.76,West,276,0.0,2.0,79,0.00,,---,0.33,VWS V14.01,2013-08-09 00:01:00,
2013-08-08 19:06:00,82.3,75.1,29.76,West,276,0.0,0.0,79,0.00,,---,0.33,VWS V14.01,2013-08-09 00:06:00,
2013-08-08 19:11:00,82.1,74.9,29.76,West,276,0.0,0.0,79,0.00,,---,0.33,VWS V14.01,2013-08-09 00:11:00,
2013-08-08 19:16:00,81.9,75.5,29.76,West,276,0.0,0.0,81,0.00,,---,0.33,VWS V14.01,2013-08-09 00:16:00,
2013-08-08 19:21:00,81.5,75.1,29.76,West,275,0.0,0.0,81,0.00,,---,0.33,VWS V14.01,2013-08-09 00:21:00,
2013-08-08 19:26:00,81.1,75.1,29.76,West,277,0.0,0.0,82,0.00,,---,0.33,VWS V14.01,2013-08-09 00:26:00,
2013-08-08 19:31:00,80.7,75.4,29.76,West,275,0.0,0.0,84,0.00,,---,0.33,VWS V14.01,2013-08-09 00:31:00,
2013-08-08 19:36:00,80.3,75.4,29.76,West,276,0.0,0.0,85,0.00,,---,0.33,VWS V14.01,2013-08-09 00:36:00,
2013-08-08 19:41:00,80.1,75.2,29.76,West,275,0.0,0.0,85,0.00,,---,0.33,VWS V14.01,2013-08-09 00:41:00,
2013-08-08 19:46:00,79.8,75.2,29.77,West,276,0.0,0.0,86,0.00,,---,0.33,VWS V14.01,2013-08-09 00:46:00,
2013-08-08 19:52:00,79.6,75.4,29.77,West,275,0.0,0.0,87,0.00,,---,0.33,VWS V14.01,2013-08-09 00:52:00,
2013-08-08 19:56:00,79.1,74.9,29.77,West,276,0.0,0.0,87,0.00,,---,0.33,VWS V14.01,2013-08-09 00:56:00,
2013-08-08 20:01:00,78.7,74.8,29.77,West,275,0.0,0.0,88,0.00,,---,0.33,VWS V14.01,2013-08-09 01:01:00,
2013-08-08 20:06:00,78.3,74.8,29.77,West,275,0.0,0.0,89,0.00,,---,0.33,VWS V14.01,2013-08-09 01:06:00,
2013-08-08 20:12:00,77.9,74.4,29.77,West,276,0.0,0.0,89,0.00,,---,0.33,VWS V14.01,2013-08-09 01:12:00,
2013-08-08 20:17:00,77.7,74.5,29.78,West,276,0.0,0.0,90,0.00,,---,0.33,VWS V14.01,2013-08-09 01:17:00,
2013-08-08 20:22:00,77.5,74.3,29.78,West,275,0.0,0.0,90,0.00,,---,0.33,VWS V14.01,2013-08-09 01:22:00,
2013-08-08 20:27:00,77.3,74.1,29.78,West,276,0.0,0.0,90,0.00,,---,0.33,VWS V14.01,2013-08-09 01:27:00,
2013-08-08 20:33:00,77.1,74.3,29.79,West,276,0.0,0.0,91,0.00,,---,0.33,VWS V14.01,2013-08-09 01:33:00,
2013-08-08 20:38:00,76.9,74.1,29.79,West,276,0.0,0.0,91,0.00,,---,0.33,VWS V14.01,2013-08-09 01:38:00,
2013-08-08 20:43:00,76.7,73.9,29.79,West,275,0.0,0.0,91,0.00,,---,0.33,VWS V14.01,2013-08-09 01:43:00,
2013-08-08 20:48:00,76.6,74.1,29.78,West,275,0.0,0.0,92,0.00,,---,0.33,VWS V14.01,2013-08-09 01:48:00,
2013-08-08 20:53:00,76.5,74.0,29.78,SSE,159,0.0,0.0,92,0.00,,---,0.33,VWS V14.01,2013-08-09 01:53:00,
2013-08-08 20:58:00,76.4,73.9,29.78,SSE,159,0.0,0.0,92,0.00,,---,0.33,VWS V14.01,2013-08-09 01:58:00,
2013-08-08 21:03:00,76.4,73.9,29.78,SSE,159,0.0,0.0,92,0.00,,---,0.33,VWS V14.01,2013-08-09 02:03:00,
2013-08-08 21:08:00,76.4,73.9,29.78,SSE,158,0.0,0.0,92,0.00,,---,0.33,VWS V14.01,2013-08-09 02:08:00,
2013-08-08 21:13:00,76.3,73.8,29.78,SSE,159,0.0,0.0,92,0.00,,---,0.33,VWS V14.01,2013-08-09 02:13:00,
2013-08-08 21:18:00,76.3,73.8,29.80,SSE,159,0.0,0.0,92,0.00,,---,0.33,VWS V14.01,2013-08-09 02:18:00,
2013-08-08 21:23:00,76.2,73.7,29.80,SSE,159,0.0,0.0,92,0.00,,---,0.33,VWS V14.01,2013-08-09 02:23:00,
2013-08-08 21:29:00,76.2,73.7,29.80,SSE,159,0.0,0.0,92,0.00,,---,0.33,VWS V14.01,2013-08-09 02:29:00,
2013-08-08 21:34:00,76.2,73.7,29.80,SSE,158,0.0,0.0,92,0.00,,---,0.33,VWS V14.01,2013-08-09 02:34:00,
2013-08-08 21:39:00,76.2,73.7,29.80,SSE,158,0.0,0.0,92,0.00,,---,0.33,VWS V14.01,2013-08-09 02:39:00,
2013-08-08 21:44:00,76.1,73.6,29.80,SSE,158,0.0,0.0,92,0.00,,---,0.33,VWS V14.01,2013-08-09 02:44:00,
2013-08-08 21:49:00,76.1,73.6,29.80,SSE,159,0.0,0.0,92,0.00,,---,0.33,VWS V14.01,2013-08-09 02:49:00,
2013-08-08 21:54:00,76.1,73.9,29.80,SSE,159,0.0,0.0,93,0.00,,---,0.33,VWS V14.01,2013-08-09 02:54:00,
2013-08-08 21:59:00,76.2,74.0,29.80,SSE,159,0.0,0.0,93,0.00,,---,0.33,VWS V14.01,2013-08-09 02:59:00,
2013-08-08 22:04:00,76.2,74.0,29.78,SSE,159,0.0,0.0,93,0.00,,---,0.33,VWS V14.01,2013-08-09 03:04:00,
2013-08-08 22:09:00,76.2,73.7,29.78,SSE,159,0.0,0.0,92,0.00,,---,0.33,VWS V14.01,2013-08-09 03:09:00,
2013-08-08 22:14:00,76.2,73.7,29.78,SSE,158,0.0,0.0,92,0.00,,---,0.33,VWS V14.01,2013-08-09 03:14:00,
2013-08-08 22:19:00,76.2,74.0,29.79,SSE,158,0.0,0.0,93,0.00,,---,0.33,VWS V14.01,2013-08-09 03:19:00,
2013-08-08 22:24:00,76.2,74.0,29.79,SSE,159,0.0,0.0,93,0.00,,---,0.33,VWS V14.01,2013-08-09 03:24:00,
2013-08-08 22:29:00,76.1,73.9,29.79,SSE,159,0.0,0.0,93,0.00,,---,0.33,VWS V14.01,2013-08-09 03:29:00,
2013-08-08 22:34:00,76.1,73.9,29.78,SSE,159,0.0,0.0,93,0.00,,---,0.33,VWS V14.01,2013-08-09 03:34:00,
2013-08-08 22:39:00,76.1,73.9,29.78,SSE,158,0.0,0.0,93,0.00,,---,0.33,VWS V14.01,2013-08-09 03:39:00,
2013-08-08 22:44:00,76.1,73.9,29.78,SSE,159,0.0,0.0,93,0.00,,---,0.33,VWS V14.01,2013-08-09 03:44:00,
2013-08-08 22:49:00,76.0,73.8,29.78,SSE,158,0.0,0.0,93,0.00,,---,0.33,VWS V14.01,2013-08-09 03:49:00,
2013-08-08 22:54:00,75.8,73.6,29.78,SSE,159,0.0,0.0,93,0.00,,---,0.33,VWS V14.01,2013-08-09 03:54:00,
2013-08-08 22:59:00,75.7,73.8,29.78,ESE,117,0.0,0.0,94,0.00,,---,0.33,VWS V14.01,2013-08-09 03:59:00,
2013-08-08 23:01:00,75.7,73.8,29.78,ESE,117,0.0,0.0,94,0.00,,---,0.33,VWS V14.01,2013-08-09 04:01:00,
2013-08-08 23:06:00,75.7,73.8,29.78,ESE,118,0.0,0.0,94,0.00,,---,0.33,VWS V14.01,2013-08-09 04:06:00,
2013-08-08 23:11:00,75.7,73.8,29.78,ESE,118,0.0,0.0,94,0.00,,---,0.33,VWS V14.01,2013-08-09 04:11:00,
2013-08-08 23:16:00,75.6,73.8,29.78,ESE,117,0.0,0.0,94,0.00,,---,0.33,VWS V14.01,2013-08-09 04:16:00,
2013-08-08 23:21:00,75.6,73.8,29.78,ESE,117,0.0,0.0,94,0.00,,---,0.33,VWS V14.01,2013-08-09 04:21:00,
2013-08-08 23:26:00,75.6,73.8,29.78,ESE,117,0.0,0.0,94,0.00,,---,0.33,VWS V14.01,2013-08-09 04:26:00,
2013-08-08 23:31:00,75.6,73.8,29.78,ESE,117,0.0,0.0,94,0.00,,---,0.33,VWS V14.01,2013-08-09 04:31:00,
2013-08-08 23:36:00,75.6,73.8,29.78,ESE,117,0.0,0.0,94,0.00,,---,0.33,VWS V14.01,2013-08-09 04:36:00,
2013-08-08 23:41:00,75.6,73.8,29.78,ESE,118,0.0,0.0,94,0.00,,---,0.33,VWS V14.01,2013-08-09 04:41:00,
2013-08-08 23:46:00,75.6,73.8,29.79,ESE,118,0.0,0.0,94,0.00,,---,0.33,VWS V14.01,2013-08-09 04:46:00,
2013-08-08 23:51:00,75.5,73.7,29.79,ESE,117,0.0,0.0,94,0.00,,---,0.33,VWS V14.01,2013-08-09 04:51:00,
2013-08-08 23:56:00,75.4,73.6,29.79,ESE,117,0.0,0.0,94,0.00,,---,0.33,VWS V14.01,2013-08-09 04:56:00,